Terminal Aerodrome Forecast
Issued by NWS Raleigh/Durham, NC

Home | Current Version | Previous Version | Text Only | Print | Product List | Glossary On
Versions: 1 2 3 4 5 6 7 8 9 10 11 12 13 14 15 16 17 18 19 20 21 22 23 24 25 26 27 28 29 30 31 32 33 34 35 36 37 38 39 40 41 42 43
000
FTUS42 KRAH 302007 AAC
TAFRDU
TAF AMD
KRDU 302007Z 3020/3118 VRB05KT P6SM VCSH BKN035
      TEMPO 3020/3021 6SM TS BKN030CB
     FM310000 VRB03KT P6SM SCT035
      TEMPO 3110/3112 5SM BR BKN020
     FM311400 18006KT P6SM BKN060=

USA.gov is the U.S. government's official web portal to all federal, state and local government web resources and services.